Time,TemperatureF,DewpointF,PressureIn,WindDirection,WindDirectionDegrees,WindSpeedMPH,WindSpeedGustMPH,Humidity,HourlyPrecipIn,Conditions,Clouds,dailyrainin,SoftwareType,DateUTC
2013-11-15 00:00:00,44.5,31.5,23.96,North,0,0.0,-999.0,60,0.00,,,0.00,,2013-11-15 08:00:00,
2013-11-15 01:00:00,43.6,31.4,23.95,North,0,0.0,-999.0,62,0.00,,,0.00,,2013-11-15 09:00:00,
2013-11-15 02:00:00,43.0,31.2,23.93,North,0,0.0,-999.0,63,0.00,,,0.00,,2013-11-15 10:00:00,
2013-11-15 03:00:00,42.1,30.8,23.90,North,0,0.0,-999.0,64,0.00,,,0.00,,2013-11-15 11:00:00,
2013-11-15 04:00:00,40.9,31.2,23.88,North,0,0.0,-999.0,68,0.00,,,0.00,,2013-11-15 12:00:00,
2013-11-15 05:00:00,40.7,33.0,23.87,North,0,0.0,-999.0,74,0.00,,,0.00,,2013-11-15 13:00:00,
2013-11-15 06:00:00,39.1,32.5,23.87,North,0,0.0,-999.0,77,0.00,,,0.00,,2013-11-15 14:00:00,
2013-11-15 07:06:00,40.1,33.5,23.87,North,0,0.0,-999.0,77,0.00,,,0.00,,2013-11-15 15:06:00,
2013-11-15 08:05:00,40.9,35.1,0.00,North,0,0.0,-999.0,80,0.00,,,0.00,,2013-11-15 16:05:00,
2013-11-15 09:05:00,42.3,34.9,0.00,North,0,0.0,-999.0,75,0.00,,,0.00,,2013-11-15 17:05:00,
2013-11-15 10:05:00,43.4,35.3,0.00,North,0,0.0,-999.0,73,0.00,,,0.00,,2013-11-15 18:05:00,
2013-11-15 11:05:00,45.5,36.7,0.00,North,0,0.0,-999.0,71,0.00,,,0.00,,2013-11-15 19:05:00,
2013-11-15 12:05:00,45.7,36.2,0.00,North,0,0.0,-999.0,69,0.00,,,0.00,,2013-11-15 20:05:00,
2013-11-15 13:05:00,45.7,36.5,0.00,North,0,0.0,-999.0,70,0.00,,,0.00,,2013-11-15 21:05:00,
2013-11-15 14:05:00,45.0,36.6,0.00,North,0,0.0,-999.0,72,0.00,,,0.00,,2013-11-15 22:05:00,
2013-11-15 15:05:00,43.9,36.2,0.00,North,0,0.0,-999.0,74,0.00,,,0.00,,2013-11-15 23:05:00,
2013-11-15 16:05:00,41.4,35.3,0.00,North,0,0.0,-999.0,79,0.00,,,0.00,,2013-11-16 00:05:00,
2013-11-15 17:05:00,39.8,34.1,0.00,North,0,0.0,-999.0,80,0.00,,,0.00,,2013-11-16 01:05:00,
2013-11-15 18:00:00,38.0,33.8,23.84,North,0,0.0,-999.0,85,0.00,,,0.00,,2013-11-16 02:00:00,
2013-11-15 19:00:00,36.9,33.0,23.86,North,0,0.0,-999.0,86,0.00,,,0.00,,2013-11-16 03:00:00,
2013-11-15 20:00:00,36.9,33.3,23.87,North,0,0.0,-999.0,87,0.00,,,0.00,,2013-11-16 04:00:00,
2013-11-15 21:00:00,37.6,33.8,23.87,North,0,0.0,-999.0,86,0.00,,,0.00,,2013-11-16 05:00:00,
2013-11-15 22:00:00,37.6,33.8,23.87,North,0,0.0,-999.0,86,0.00,,,0.00,,2013-11-16 06:00:00,
2013-11-15 23:00:00,36.5,33.3,23.88,North,0,0.0,-999.0,88,0.00,,,0.00,,2013-11-16 07:00:00,